Time,TemperatureF,DewpointF,PressureIn,WindDirection,WindDirectionDegrees,WindSpeedMPH,WindSpeedGustMPH,Humidity,HourlyPrecipIn,Conditions,Clouds,dailyrainin,SoftwareType,DateUTC
2013-03-17 00:05:00,32.4,16.7,29.96,NW,312,0.0,1.0,52,0.00,,,0.00,Wunderground v.1.15,2013-03-17 04:05:00,
2013-03-17 00:10:00,32.2,16.5,29.95,NW,312,0.0,1.0,52,0.00,,,0.00,Wunderground v.1.15,2013-03-17 04:10:00,
2013-03-17 00:15:00,32.0,16.3,29.96,NW,312,0.0,1.0,52,0.00,,,0.00,Wunderground v.1.15,2013-03-17 04:15:00,
2013-03-17 00:22:00,31.6,16.8,29.96,NW,312,0.0,0.0,54,0.00,,,0.00,Wunderground v.1.15,2013-03-17 04:22:00,
2013-03-17 00:28:00,30.8,16.5,29.96,NW,312,0.0,0.0,55,0.00,,,0.00,Wunderground v.1.15,2013-03-17 04:28:00,
2013-03-17 00:33:00,30.2,16.8,29.96,NW,312,0.0,1.0,57,0.00,,,0.00,Wunderground v.1.15,2013-03-17 04:33:00,
2013-03-17 00:39:00,29.8,17.6,29.97,NW,312,0.0,0.0,60,0.00,,,0.00,Wunderground v.1.15,2013-03-17 04:39:00,
2013-03-17 00:44:00,28.9,17.5,29.97,NW,312,0.0,1.0,62,0.00,,,0.00,Wunderground v.1.15,2013-03-17 04:44:00,
2013-03-17 00:49:00,28.7,17.7,29.97,NW,312,0.0,1.0,63,0.00,,,0.00,Wunderground v.1.15,2013-03-17 04:49:00,
2013-03-17 00:56:00,28.6,17.2,29.97,NW,312,1.0,1.0,62,0.00,,,0.00,Wunderground v.1.15,2013-03-17 04:56:00,
2013-03-17 01:01:00,28.7,16.9,29.98,NW,312,1.0,2.0,61,0.00,,,0.00,Wunderground v.1.15,2013-03-17 05:01:00,
2013-03-17 01:06:00,28.7,16.6,29.98,NW,318,1.0,3.0,60,0.00,,,0.00,Wunderground v.1.15,2013-03-17 05:06:00,
2013-03-17 01:12:00,28.6,16.5,29.98,NW,318,0.0,1.0,60,0.00,,,0.00,Wunderground v.1.15,2013-03-17 05:12:00,
2013-03-17 01:17:00,28.5,16.4,29.98,NW,318,0.0,1.0,60,0.00,,,0.00,Wunderground v.1.15,2013-03-17 05:17:00,
2013-03-17 01:22:00,28.4,15.9,29.98,NW,320,0.0,3.0,59,0.00,,,0.00,Wunderground v.1.15,2013-03-17 05:22:00,
2013-03-17 01:27:00,28.2,16.1,29.98,NW,320,0.0,3.0,60,0.00,,,0.00,Wunderground v.1.15,2013-03-17 05:27:00,
2013-03-17 01:33:00,28.0,15.9,29.99,NW,320,0.0,1.0,60,0.00,,,0.00,Wunderground v.1.15,2013-03-17 05:33:00,
2013-03-17 01:38:00,27.9,15.8,29.99,NW,320,3.0,3.0,60,0.00,,,0.00,Wunderground v.1.15,2013-03-17 05:38:00,
2013-03-17 01:45:00,27.9,15.4,29.99,NW,320,1.0,3.0,59,0.00,,,0.00,Wunderground v.1.15,2013-03-17 05:45:00,
2013-03-17 01:50:00,27.7,15.6,29.99,NW,320,1.0,1.0,60,0.00,,,0.00,Wunderground v.1.15,2013-03-17 05:50:00,
2013-03-17 01:55:00,27.5,15.8,29.99,NW,320,0.0,1.0,61,0.00,,,0.00,Wunderground v.1.15,2013-03-17 05:55:00,
2013-03-17 02:00:00,27.4,15.3,29.99,NW,320,1.0,1.0,60,0.00,,,0.00,Wunderground v.1.15,2013-03-17 06:00:00,
2013-03-17 02:07:00,27.3,15.6,30.00,NW,320,0.0,1.0,61,0.00,,,0.00,Wunderground v.1.15,2013-03-17 06:07:00,
2013-03-17 02:12:00,27.1,15.8,29.99,NW,320,0.0,0.0,62,0.00,,,0.00,Wunderground v.1.15,2013-03-17 06:12:00,
2013-03-17 02:17:00,27.2,16.3,29.99,NW,320,0.0,0.0,63,0.00,,,0.00,Wunderground v.1.15,2013-03-17 06:17:00,
2013-03-17 02:22:00,27.3,17.1,29.99,NW,320,0.0,0.0,65,0.00,,,0.00,Wunderground v.1.15,2013-03-17 06:22:00,
2013-03-17 02:27:00,27.1,16.5,29.99,NW,320,0.0,0.0,64,0.00,,,0.00,Wunderground v.1.15,2013-03-17 06:27:00,
2013-03-17 02:32:00,26.7,15.4,29.99,NW,320,0.0,1.0,62,0.00,,,0.00,Wunderground v.1.15,2013-03-17 06:32:00,
2013-03-17 02:37:00,26.4,15.5,29.98,NW,320,0.0,1.0,63,0.00,,,0.00,Wunderground v.1.15,2013-03-17 06:37:00,
2013-03-17 02:42:00,26.4,16.6,29.98,NW,320,0.0,0.0,66,0.00,,,0.00,Wunderground v.1.15,2013-03-17 06:42:00,
2013-03-17 02:47:00,26.3,15.8,29.98,NW,320,0.0,2.0,64,0.00,,,0.00,Wunderground v.1.15,2013-03-17 06:47:00,
2013-03-17 02:52:00,26.2,16.4,29.99,NW,320,1.0,1.0,66,0.00,,,0.00,Wunderground v.1.15,2013-03-17 06:52:00,
2013-03-17 02:57:00,26.0,15.5,29.99,NW,320,1.0,2.0,64,0.00,,,0.00,Wunderground v.1.15,2013-03-17 06:57:00,
2013-03-17 03:02:00,25.9,15.7,29.99,NW,320,0.0,1.0,65,0.00,,,0.00,Wunderground v.1.15,2013-03-17 07:02:00,
2013-03-17 03:07:00,25.8,15.6,29.99,NW,320,0.0,1.0,65,0.00,,,0.00,Wunderground v.1.15,2013-03-17 07:07:00,
2013-03-17 03:12:00,25.8,16.0,29.99,NW,320,0.0,0.0,66,0.00,,,0.00,Wunderground v.1.15,2013-03-17 07:12:00,
2013-03-17 03:17:00,25.7,15.9,29.99,NW,320,0.0,1.0,66,0.00,,,0.00,Wunderground v.1.15,2013-03-17 07:17:00,
2013-03-17 03:22:00,25.6,15.8,29.99,NW,320,0.0,1.0,66,0.00,,,0.00,Wunderground v.1.15,2013-03-17 07:22:00,
2013-03-17 03:28:00,25.3,15.5,30.00,NW,320,1.0,2.0,66,0.00,,,0.00,Wunderground v.1.15,2013-03-17 07:28:00,
2013-03-17 03:33:00,25.0,15.6,29.99,NW,320,0.0,3.0,67,0.00,,,0.00,Wunderground v.1.15,2013-03-17 07:33:00,
2013-03-17 03:38:00,24.9,15.5,29.99,NW,320,0.0,3.0,67,0.00,,,0.00,Wunderground v.1.15,2013-03-17 07:38:00,
2013-03-17 03:43:00,24.9,15.5,30.00,NW,320,1.0,1.0,67,0.00,,,0.00,Wunderground v.1.15,2013-03-17 07:43:00,
2013-03-17 03:48:00,24.9,15.1,30.00,NW,320,0.0,1.0,66,0.00,,,0.00,Wunderground v.1.15,2013-03-17 07:48:00,
2013-03-17 03:53:00,24.9,15.1,30.00,NW,320,0.0,1.0,66,0.00,,,0.00,Wunderground v.1.15,2013-03-17 07:53:00,
2013-03-17 03:58:00,24.9,15.1,30.01,NW,320,0.0,1.0,66,0.00,,,0.00,Wunderground v.1.15,2013-03-17 07:58:00,
2013-03-17 04:03:00,25.0,14.9,30.01,NW,320,0.0,2.0,65,0.00,,,0.00,Wunderground v.1.15,2013-03-17 08:03:00,
2013-03-17 04:08:00,25.1,14.6,30.01,NW,320,0.0,2.0,64,0.00,,,0.00,Wunderground v.1.15,2013-03-17 08:08:00,
2013-03-17 04:13:00,25.2,14.4,30.01,NW,320,0.0,3.0,63,0.00,,,0.00,Wunderground v.1.15,2013-03-17 08:13:00,
2013-03-17 04:18:00,25.3,14.5,30.01,NW,320,2.0,3.0,63,0.00,,,0.00,Wunderground v.1.15,2013-03-17 08:18:00,
2013-03-17 04:23:00,25.4,14.5,30.01,NW,320,0.0,1.0,63,0.00,,,0.00,Wunderground v.1.15,2013-03-17 08:23:00,
2013-03-17 04:28:00,25.4,14.5,30.01,NW,320,0.0,1.0,63,0.00,,,0.00,Wunderground v.1.15,2013-03-17 08:28:00,
2013-03-17 04:33:00,24.9,14.8,30.01,NW,320,0.0,2.0,65,0.00,,,0.00,Wunderground v.1.15,2013-03-17 08:33:00,
2013-03-17 04:38:00,24.5,14.4,30.02,NW,320,0.0,2.0,65,0.00,,,0.00,Wunderground v.1.15,2013-03-17 08:38:00,
2013-03-17 04:43:00,24.5,14.8,30.02,NW,320,0.0,2.0,66,0.00,,,0.00,Wunderground v.1.15,2013-03-17 08:43:00,
2013-03-17 04:48:00,24.5,14.8,30.02,NW,320,1.0,2.0,66,0.00,,,0.00,Wunderground v.1.15,2013-03-17 08:48:00,
2013-03-17 04:53:00,24.2,14.8,30.02,NW,320,1.0,2.0,67,0.00,,,0.00,Wunderground v.1.15,2013-03-17 08:53:00,
2013-03-17 04:58:00,24.0,15.0,30.02,NW,320,0.0,2.0,68,0.00,,,0.00,Wunderground v.1.15,2013-03-17 08:58:00,
2013-03-17 05:03:00,26.9,22.4,30.02,NW,320,0.0,1.0,83,0.00,,,0.00,Wunderground v.1.15,2013-03-17 09:03:00,
2013-03-17 05:08:00,36.0,32.2,30.03,NW,320,0.0,1.0,86,0.00,,,0.00,Wunderground v.1.15,2013-03-17 09:08:00,
2013-03-17 05:13:00,40.4,36.5,30.02,NW,320,1.0,1.0,86,0.00,,,0.00,Wunderground v.1.15,2013-03-17 09:13:00,
2013-03-17 05:18:00,42.1,38.2,30.02,NW,320,1.0,1.0,86,0.00,,,0.00,Wunderground v.1.15,2013-03-17 09:18:00,
2013-03-17 05:23:00,43.8,39.9,30.02,NW,320,0.0,1.0,86,0.00,,,0.00,Wunderground v.1.15,2013-03-17 09:23:00,
2013-03-17 05:28:00,40.5,36.6,30.02,NW,320,1.0,1.0,86,0.00,,,0.00,Wunderground v.1.15,2013-03-17 09:28:00,
2013-03-17 05:33:00,34.1,30.9,30.02,NW,320,0.0,2.0,88,0.00,,,0.00,Wunderground v.1.15,2013-03-17 09:33:00,
2013-03-17 05:38:00,28.2,21.0,30.02,NW,320,1.0,2.0,74,0.00,,,0.00,Wunderground v.1.15,2013-03-17 09:38:00,
2013-03-17 05:43:00,25.0,17.6,30.02,NW,320,0.0,3.0,73,0.00,,,0.00,Wunderground v.1.15,2013-03-17 09:43:00,
2013-03-17 05:48:00,23.7,16.6,30.03,NW,320,3.0,3.0,74,0.00,,,0.00,Wunderground v.1.15,2013-03-17 09:48:00,
2013-03-17 05:53:00,23.3,16.5,30.03,NW,320,0.0,3.0,75,0.00,,,0.00,Wunderground v.1.15,2013-03-17 09:53:00,
2013-03-17 05:58:00,23.3,16.5,30.04,NW,320,1.0,2.0,75,0.00,,,0.00,Wunderground v.1.15,2013-03-17 09:58:00,
2013-03-17 06:03:00,23.3,16.2,30.03,NW,320,2.0,3.0,74,0.00,,,0.00,Wunderground v.1.15,2013-03-17 10:03:00,
2013-03-17 06:08:00,23.3,15.9,30.03,NW,320,2.0,2.0,73,0.00,,,0.00,Wunderground v.1.15,2013-03-17 10:08:00,
2013-03-17 06:13:00,23.3,15.9,30.03,NW,320,2.0,4.0,73,0.00,,,0.00,Wunderground v.1.15,2013-03-17 10:13:00,
2013-03-17 06:18:00,23.4,15.7,30.03,NW,320,1.0,1.0,72,0.00,,,0.00,Wunderground v.1.15,2013-03-17 10:18:00,
2013-03-17 06:23:00,23.4,16.0,30.03,NW,320,0.0,2.0,73,0.00,,,0.00,Wunderground v.1.15,2013-03-17 10:23:00,
2013-03-17 06:28:00,23.3,15.6,30.03,NW,320,0.0,1.0,72,0.00,,,0.00,Wunderground v.1.15,2013-03-17 10:28:00,
2013-03-17 06:33:00,23.0,15.3,30.04,NW,320,0.0,2.0,72,0.00,,,0.00,Wunderground v.1.15,2013-03-17 10:33:00,
2013-03-17 06:39:00,30.3,26.3,30.05,NW,320,1.0,1.0,85,0.00,,,0.00,Wunderground v.1.15,2013-03-17 10:39:00,
2013-03-17 06:44:00,32.5,28.8,30.05,NW,320,2.0,3.0,86,0.00,,,0.00,Wunderground v.1.15,2013-03-17 10:44:00,
2013-03-17 06:49:00,34.1,30.4,30.05,NW,320,0.0,1.0,86,0.00,,,0.00,Wunderground v.1.15,2013-03-17 10:49:00,
2013-03-17 06:54:00,40.3,36.4,30.05,NW,320,0.0,2.0,86,0.00,,,0.00,Wunderground v.1.15,2013-03-17 10:54:00,
2013-03-17 06:59:00,43.9,40.0,30.06,NW,320,0.0,0.0,86,0.00,,,0.00,Wunderground v.1.15,2013-03-17 10:59:00,
2013-03-17 07:04:00,37.9,34.1,30.06,NW,320,0.0,2.0,86,0.00,,,0.00,Wunderground v.1.15,2013-03-17 11:04:00,
2013-03-17 07:09:00,34.0,30.8,30.06,NW,320,1.0,2.0,88,0.00,,,0.00,Wunderground v.1.15,2013-03-17 11:09:00,
2013-03-17 07:14:00,29.6,26.2,30.07,NW,320,1.0,4.0,87,0.00,,,0.00,Wunderground v.1.15,2013-03-17 11:14:00,
2013-03-17 07:19:00,27.3,23.9,30.07,NW,317,3.0,3.0,87,0.00,,,0.00,Wunderground v.1.15,2013-03-17 11:19:00,
2013-03-17 07:25:00,25.9,22.6,30.07,NW,319,2.0,4.0,87,0.00,,,0.00,Wunderground v.1.15,2013-03-17 11:25:00,
2013-03-17 07:30:00,24.5,20.4,30.07,NW,313,4.0,5.0,84,0.00,,,0.00,Wunderground v.1.15,2013-03-17 11:30:00,
2013-03-17 07:35:00,24.0,18.4,30.08,West,277,3.0,7.0,79,0.00,,,0.00,Wunderground v.1.15,2013-03-17 11:35:00,
2013-03-17 07:40:00,24.1,17.9,30.08,WNW,295,3.0,6.0,77,0.00,,,0.00,Wunderground v.1.15,2013-03-17 11:40:00,
2013-03-17 07:45:00,24.4,17.6,30.09,WNW,301,3.0,9.0,75,0.00,,,0.00,Wunderground v.1.15,2013-03-17 11:45:00,
2013-03-17 07:50:00,24.7,17.6,30.09,WNW,295,2.0,4.0,74,0.00,,,0.00,Wunderground v.1.15,2013-03-17 11:50:00,
2013-03-17 07:55:00,24.9,17.5,30.10,WSW,241,5.0,9.0,73,0.00,,,0.00,Wunderground v.1.15,2013-03-17 11:55:00,
2013-03-17 08:00:00,25.2,17.4,30.10,NNW,327,3.0,8.0,72,0.00,,,0.00,Wunderground v.1.15,2013-03-17 12:00:00,
2013-03-17 08:05:00,25.3,17.2,30.10,SW,232,8.0,8.0,71,0.00,,,0.00,Wunderground v.1.15,2013-03-17 12:05:00,
2013-03-17 08:10:00,25.6,17.5,30.11,WNW,295,3.0,6.0,71,0.00,,,0.00,Wunderground v.1.15,2013-03-17 12:10:00,
2013-03-17 08:15:00,25.9,17.5,30.11,West,262,4.0,6.0,70,0.00,,,0.00,Wunderground v.1.15,2013-03-17 12:15:00,
2013-03-17 08:20:00,26.1,17.3,30.11,West,268,4.0,8.0,69,0.00,,,0.00,Wunderground v.1.15,2013-03-17 12:20:00,
2013-03-17 08:25:00,26.3,17.2,30.12,West,259,4.0,10.0,68,0.00,,,0.00,Wunderground v.1.15,2013-03-17 12:25:00,
2013-03-17 08:30:00,26.4,16.9,30.11,WNW,291,6.0,12.0,67,0.00,,,0.00,Wunderground v.1.15,2013-03-17 12:30:00,
2013-03-17 08:35:00,26.6,17.5,30.12,NNW,329,2.0,12.0,68,0.00,,,0.00,Wunderground v.1.15,2013-03-17 12:35:00,
2013-03-17 08:40:00,26.9,17.4,30.12,NNW,329,7.0,9.0,67,0.00,,,0.00,Wunderground v.1.15,2013-03-17 12:40:00,
2013-03-17 08:45:00,26.9,17.0,30.12,West,269,4.0,13.0,66,0.00,,,0.00,Wunderground v.1.15,2013-03-17 12:45:00,
2013-03-17 08:50:00,27.2,17.7,30.12,NW,305,2.0,9.0,67,0.00,,,0.00,Wunderground v.1.15,2013-03-17 12:50:00,
2013-03-17 08:55:00,27.9,19.0,30.12,NNW,337,12.0,15.0,69,0.00,,,0.00,Wunderground v.1.15,2013-03-17 12:55:00,
2013-03-17 09:00:00,27.3,17.8,30.12,NW,305,5.0,9.0,67,0.00,,,0.00,Wunderground v.1.15,2013-03-17 13:00:00,
2013-03-17 09:05:00,27.8,18.9,30.12,NW,304,11.0,12.0,69,0.00,,,0.00,Wunderground v.1.15,2013-03-17 13:05:00,
2013-03-17 09:10:00,27.8,19.6,30.13,ENE,75,7.0,7.0,71,0.00,,,0.00,Wunderground v.1.15,2013-03-17 13:10:00,
2013-03-17 09:15:00,27.7,17.5,30.13,NW,304,6.0,9.0,65,0.00,,,0.00,Wunderground v.1.15,2013-03-17 13:15:00,
2013-03-17 09:20:00,27.1,16.9,30.14,West,276,8.0,13.0,65,0.00,,,0.00,Wunderground v.1.15,2013-03-17 13:20:00,
2013-03-17 09:26:00,26.9,16.7,30.14,NW,312,8.0,13.0,65,0.00,,,0.00,Wunderground v.1.15,2013-03-17 13:26:00,
2013-03-17 09:31:00,27.2,17.0,30.14,NNW,336,4.0,10.0,65,0.00,,,0.00,Wunderground v.1.15,2013-03-17 13:31:00,
2013-03-17 09:36:00,27.7,17.1,30.14,West,262,2.0,10.0,64,0.00,,,0.00,Wunderground v.1.15,2013-03-17 13:36:00,
2013-03-17 09:41:00,28.1,16.7,30.14,NW,307,5.0,14.0,62,0.00,,,0.00,Wunderground v.1.15,2013-03-17 13:41:00,
2013-03-17 09:46:00,27.9,15.8,30.14,NE,35,4.0,15.0,60,0.00,,,0.00,Wunderground v.1.15,2013-03-17 13:46:00,
2013-03-17 09:51:00,28.0,15.1,30.14,WNW,294,6.0,15.0,58,0.00,,,0.00,Wunderground v.1.15,2013-03-17 13:51:00,
2013-03-17 09:56:00,28.5,16.0,30.13,NW,316,8.0,15.0,59,0.00,,,0.00,Wunderground v.1.15,2013-03-17 13:56:00,
2013-03-17 10:02:00,29.3,16.3,30.13,North,355,3.0,11.0,58,0.00,,,0.00,Wunderground v.1.15,2013-03-17 14:02:00,
2013-03-17 10:07:00,28.9,14.3,30.13,West,276,11.0,17.0,54,0.00,,,0.00,Wunderground v.1.15,2013-03-17 14:07:00,
2013-03-17 10:12:00,28.8,14.6,30.13,WSW,254,6.0,15.0,55,0.00,,,0.00,Wunderground v.1.15,2013-03-17 14:12:00,
2013-03-17 10:17:00,28.8,13.4,30.13,SW,223,7.0,15.0,52,0.00,,,0.00,Wunderground v.1.15,2013-03-17 14:17:00,
2013-03-17 10:22:00,28.9,13.9,30.13,NW,304,9.0,9.0,53,0.00,,,0.00,Wunderground v.1.15,2013-03-17 14:22:00,
2013-03-17 10:27:00,29.5,14.0,30.13,West,271,6.0,11.0,52,0.00,,,0.00,Wunderground v.1.15,2013-03-17 14:27:00,
2013-03-17 10:32:00,29.2,13.7,30.13,West,263,9.0,15.0,52,0.00,,,0.00,Wunderground v.1.15,2013-03-17 14:32:00,
2013-03-17 10:37:00,29.6,14.1,30.12,NW,321,6.0,15.0,52,0.00,,,0.00,Wunderground v.1.15,2013-03-17 14:37:00,
2013-03-17 10:42:00,29.8,13.9,30.13,NW,307,11.0,11.0,51,0.00,,,0.00,Wunderground v.1.15,2013-03-17 14:42:00,
2013-03-17 10:47:00,29.9,13.5,30.12,WSW,251,14.0,14.0,50,0.00,,,0.00,Wunderground v.1.15,2013-03-17 14:47:00,
2013-03-17 10:52:00,29.9,13.5,30.12,WSW,248,5.0,9.0,50,0.00,,,0.00,Wunderground v.1.15,2013-03-17 14:52:00,
2013-03-17 10:57:00,30.7,13.3,30.13,West,274,4.0,13.0,48,0.00,,,0.00,Wunderground v.1.15,2013-03-17 14:57:00,
2013-03-17 11:02:00,30.8,12.9,30.13,NW,308,6.0,15.0,47,0.00,,,0.00,Wunderground v.1.15,2013-03-17 15:02:00,
2013-03-17 11:07:00,30.9,14.9,30.13,West,275,10.0,16.0,51,0.00,,,0.00,Wunderground v.1.15,2013-03-17 15:07:00,
2013-03-17 11:12:00,31.8,14.3,30.13,WSW,246,11.0,11.0,48,0.00,,,0.00,Wunderground v.1.15,2013-03-17 15:12:00,
2013-03-17 11:17:00,31.6,13.2,30.13,NNW,336,10.0,18.0,46,0.00,,,0.00,Wunderground v.1.15,2013-03-17 15:17:00,
2013-03-17 11:22:00,32.3,14.3,30.13,North,350,9.0,12.0,47,0.00,,,0.00,Wunderground v.1.15,2013-03-17 15:22:00,
2013-03-17 11:27:00,32.1,13.1,30.13,West,276,13.0,19.0,45,0.00,,,0.00,Wunderground v.1.15,2013-03-17 15:27:00,
2013-03-17 11:32:00,32.3,13.3,30.13,WNW,303,2.0,14.0,45,0.00,,,0.00,Wunderground v.1.15,2013-03-17 15:32:00,
2013-03-17 11:37:00,33.1,13.5,30.13,NW,319,16.0,19.0,44,0.00,,,0.00,Wunderground v.1.15,2013-03-17 15:37:00,
2013-03-17 11:42:00,33.0,13.4,30.13,North,5,3.0,13.0,44,0.00,,,0.00,Wunderground v.1.15,2013-03-17 15:42:00,
2013-03-17 11:48:00,33.4,12.7,30.13,West,269,10.0,14.0,42,0.00,,,0.00,Wunderground v.1.15,2013-03-17 15:48:00,
2013-03-17 11:53:00,32.9,12.3,30.13,WNW,302,9.0,17.0,42,0.00,,,0.00,Wunderground v.1.15,2013-03-17 15:53:00,
2013-03-17 11:58:00,32.8,12.2,30.13,NNW,344,1.0,17.0,42,0.00,,,0.00,Wunderground v.1.15,2013-03-17 15:58:00,
2013-03-17 12:03:00,33.0,12.4,30.13,West,262,7.0,13.0,42,0.00,,,0.00,Wunderground v.1.15,2013-03-17 16:03:00,
2013-03-17 12:08:00,33.1,13.0,30.13,NW,309,14.0,14.0,43,0.00,,,0.00,Wunderground v.1.15,2013-03-17 16:08:00,
2013-03-17 12:13:00,32.5,11.9,30.14,NW,315,12.0,22.0,42,0.00,,,0.00,Wunderground v.1.15,2013-03-17 16:13:00,
2013-03-17 12:18:00,32.5,12.5,30.14,West,262,9.0,22.0,43,0.00,,,0.00,Wunderground v.1.15,2013-03-17 16:18:00,
2013-03-17 12:23:00,32.6,12.0,30.14,West,278,7.0,16.0,42,0.00,,,0.00,Wunderground v.1.15,2013-03-17 16:23:00,
2013-03-17 12:28:00,32.7,12.1,30.13,NW,306,10.0,16.0,42,0.00,,,0.00,Wunderground v.1.15,2013-03-17 16:28:00,
2013-03-17 12:33:00,32.5,11.9,30.14,West,263,8.0,15.0,42,0.00,,,0.00,Wunderground v.1.15,2013-03-17 16:33:00,
2013-03-17 12:38:00,33.0,11.8,30.13,WNW,302,15.0,19.0,41,0.00,,,0.00,Wunderground v.1.15,2013-03-17 16:38:00,
2013-03-17 12:43:00,32.8,11.6,30.13,NW,321,11.0,20.0,41,0.00,,,0.00,Wunderground v.1.15,2013-03-17 16:43:00,
2013-03-17 12:48:00,33.0,11.8,30.13,West,266,14.0,20.0,41,0.00,,,0.00,Wunderground v.1.15,2013-03-17 16:48:00,
2013-03-17 12:53:00,33.3,11.5,30.13,WNW,292,11.0,22.0,40,0.00,,,0.00,Wunderground v.1.15,2013-03-17 16:53:00,
2013-03-17 12:58:00,33.2,12.0,30.13,North,360,8.0,10.0,41,0.00,,,0.00,Wunderground v.1.15,2013-03-17 16:58:00,
2013-03-17 13:03:00,33.7,13.0,30.13,West,276,5.0,13.0,42,0.00,,,0.00,Wunderground v.1.15,2013-03-17 17:03:00,
2013-03-17 13:08:00,33.9,12.1,30.13,WNW,299,10.0,10.0,40,0.00,,,0.00,Wunderground v.1.15,2013-03-17 17:08:00,
2013-03-17 13:13:00,34.1,13.9,30.13,NW,317,13.0,14.0,43,0.00,,,0.00,Wunderground v.1.15,2013-03-17 17:13:00,
2013-03-17 13:18:00,35.0,12.5,30.12,WNW,283,6.0,9.0,39,0.00,,,0.00,Wunderground v.1.15,2013-03-17 17:18:00,
2013-03-17 13:23:00,35.0,11.9,30.13,WSW,254,17.0,18.0,38,0.00,,,0.00,Wunderground v.1.15,2013-03-17 17:23:00,
2013-03-17 13:29:00,34.1,10.5,30.13,West,265,4.0,8.0,37,0.00,,,0.00,Wunderground v.1.15,2013-03-17 17:29:00,
2013-03-17 13:34:00,34.1,10.5,30.13,NW,317,3.0,18.0,37,0.00,,,0.00,Wunderground v.1.15,2013-03-17 17:34:00,
2013-03-17 13:39:00,34.5,11.5,30.12,North,5,2.0,13.0,38,0.00,,,0.00,Wunderground v.1.15,2013-03-17 17:39:00,
2013-03-17 13:44:00,35.3,11.0,30.12,North,360,4.0,13.0,36,0.00,,,0.00,Wunderground v.1.15,2013-03-17 17:44:00,
2013-03-17 13:49:00,35.6,11.2,30.13,WNW,288,6.0,12.0,36,0.00,,,0.00,Wunderground v.1.15,2013-03-17 17:49:00,
2013-03-17 13:54:00,35.1,8.8,30.12,NE,34,4.0,16.0,33,0.00,,,0.00,Wunderground v.1.15,2013-03-17 17:54:00,
2013-03-17 13:59:00,35.3,9.0,30.13,NW,307,5.0,8.0,33,0.00,,,0.00,Wunderground v.1.15,2013-03-17 17:59:00,
2013-03-17 14:04:00,35.2,7.5,30.13,West,276,5.0,13.0,31,0.00,,,0.00,Wunderground v.1.15,2013-03-17 18:04:00,
2013-03-17 14:09:00,34.7,7.1,30.13,NNE,32,3.0,8.0,31,0.00,,,0.00,Wunderground v.1.15,2013-03-17 18:09:00,
2013-03-17 14:14:00,34.7,6.4,30.13,WNW,302,5.0,20.0,30,0.00,,,0.00,Wunderground v.1.15,2013-03-17 18:14:00,
2013-03-17 14:19:00,34.5,8.3,30.13,SSW,198,10.0,12.0,33,0.00,,,0.00,Wunderground v.1.15,2013-03-17 18:19:00,
2013-03-17 14:24:00,35.0,6.6,30.14,NW,326,21.0,21.0,30,0.00,,,0.00,Wunderground v.1.15,2013-03-17 18:24:00,
2013-03-17 14:29:00,34.5,5.5,30.14,NW,305,9.0,16.0,29,0.00,,,0.00,Wunderground v.1.15,2013-03-17 18:29:00,
2013-03-17 14:34:00,34.7,6.4,30.14,West,273,3.0,18.0,30,0.00,,,0.00,Wunderground v.1.15,2013-03-17 18:34:00,
2013-03-17 14:39:00,34.6,4.8,30.14,NW,318,5.0,18.0,28,0.00,,,0.00,Wunderground v.1.15,2013-03-17 18:39:00,
2013-03-17 14:44:00,35.2,6.1,30.13,WNW,290,3.0,18.0,29,0.00,,,0.00,Wunderground v.1.15,2013-03-17 18:44:00,
2013-03-17 14:49:00,34.9,5.0,30.14,WSW,258,8.0,16.0,28,0.00,,,0.00,Wunderground v.1.15,2013-03-17 18:49:00,
2013-03-17 14:54:00,34.3,6.0,30.14,WNW,298,5.0,18.0,30,0.00,,,0.00,Wunderground v.1.15,2013-03-17 18:54:00,
2013-03-17 14:59:00,34.6,6.3,30.14,NW,313,12.0,15.0,30,0.00,,,0.00,Wunderground v.1.15,2013-03-17 18:59:00,
2013-03-17 15:05:00,34.8,5.7,30.15,WNW,294,13.0,15.0,29,0.00,,,0.00,Wunderground v.1.15,2013-03-17 19:05:00,
2013-03-17 15:10:00,34.2,4.4,30.15,West,281,10.0,14.0,28,0.00,,,0.00,Wunderground v.1.15,2013-03-17 19:10:00,
2013-03-17 15:15:00,34.4,5.4,30.15,North,5,5.0,17.0,29,0.00,,,0.00,Wunderground v.1.15,2013-03-17 19:15:00,
2013-03-17 15:20:00,34.8,5.7,30.15,West,262,2.0,8.0,29,0.00,,,0.00,Wunderground v.1.15,2013-03-17 19:20:00,
2013-03-17 15:25:00,35.3,5.4,30.15,NW,323,4.0,11.0,28,0.00,,,0.00,Wunderground v.1.15,2013-03-17 19:25:00,
2013-03-17 15:30:00,35.7,6.5,30.15,WNW,289,2.0,7.0,29,0.00,,,0.00,Wunderground v.1.15,2013-03-17 19:30:00,
2013-03-17 15:35:00,35.2,6.1,30.15,NW,325,1.0,16.0,29,0.00,,,0.00,Wunderground v.1.15,2013-03-17 19:35:00,
2013-03-17 15:40:00,35.7,5.7,30.15,WNW,294,3.0,15.0,28,0.00,,,0.00,Wunderground v.1.15,2013-03-17 19:40:00,
2013-03-17 15:45:00,35.4,6.2,30.16,West,267,6.0,16.0,29,0.00,,,0.00,Wunderground v.1.15,2013-03-17 19:45:00,
2013-03-17 15:50:00,35.1,5.2,30.16,NNW,337,5.0,11.0,28,0.00,,,0.00,Wunderground v.1.15,2013-03-17 19:50:00,
2013-03-17 15:55:00,35.1,6.7,30.16,NW,311,10.0,14.0,30,0.00,,,0.00,Wunderground v.1.15,2013-03-17 19:55:00,
2013-03-17 16:00:00,35.3,6.9,30.16,West,281,5.0,9.0,30,0.00,,,0.00,Wunderground v.1.15,2013-03-17 20:00:00,
2013-03-17 16:05:00,35.9,6.7,30.16,NW,309,7.0,9.0,29,0.00,,,0.00,Wunderground v.1.15,2013-03-17 20:05:00,
2013-03-17 16:10:00,35.5,4.8,30.16,SSW,209,11.0,16.0,27,0.00,,,0.00,Wunderground v.1.15,2013-03-17 20:10:00,
2013-03-17 16:16:00,35.2,4.5,30.16,WNW,289,17.0,17.0,27,0.00,,,0.00,Wunderground v.1.15,2013-03-17 20:16:00,
2013-03-17 16:21:00,35.0,4.3,30.17,WNW,292,8.0,17.0,27,0.00,,,0.00,Wunderground v.1.15,2013-03-17 20:21:00,
2013-03-17 16:26:00,34.6,4.0,30.16,WNW,302,6.0,21.0,27,0.00,,,0.00,Wunderground v.1.15,2013-03-17 20:26:00,
2013-03-17 16:31:00,35.0,4.3,30.17,NNE,20,6.0,13.0,27,0.00,,,0.00,Wunderground v.1.15,2013-03-17 20:31:00,
2013-03-17 16:36:00,34.7,3.2,30.17,NW,321,4.0,21.0,26,0.00,,,0.00,Wunderground v.1.15,2013-03-17 20:36:00,
2013-03-17 16:41:00,34.5,3.1,30.18,WSW,244,7.0,14.0,26,0.00,,,0.00,Wunderground v.1.15,2013-03-17 20:41:00,
2013-03-17 16:46:00,34.4,3.8,30.18,WNW,299,9.0,17.0,27,0.00,,,0.00,Wunderground v.1.15,2013-03-17 20:46:00,
2013-03-17 16:51:00,34.8,3.3,30.18,NW,315,4.0,12.0,26,0.00,,,0.00,Wunderground v.1.15,2013-03-17 20:51:00,
2013-03-17 16:57:00,35.1,4.4,30.18,WSW,252,6.0,14.0,27,0.00,,,0.00,Wunderground v.1.15,2013-03-17 20:57:00,
2013-03-17 17:02:00,35.3,3.8,30.18,NW,315,8.0,13.0,26,0.00,,,0.00,Wunderground v.1.15,2013-03-17 21:02:00,
2013-03-17 17:07:00,35.1,5.2,30.19,NNW,327,4.0,13.0,28,0.00,,,0.00,Wunderground v.1.15,2013-03-17 21:07:00,
2013-03-17 17:12:00,34.6,3.2,30.19,WNW,300,7.0,12.0,26,0.00,,,0.00,Wunderground v.1.15,2013-03-17 21:12:00,
2013-03-17 17:17:00,34.4,5.4,30.19,WNW,302,9.0,18.0,29,0.00,,,0.00,Wunderground v.1.15,2013-03-17 21:17:00,
2013-03-17 17:22:00,33.9,4.2,30.19,North,355,5.0,11.0,28,0.00,,,0.00,Wunderground v.1.15,2013-03-17 21:22:00,
2013-03-17 17:27:00,34.2,3.6,30.19,NNW,336,5.0,11.0,27,0.00,,,0.00,Wunderground v.1.15,2013-03-17 21:27:00,
2013-03-17 17:32:00,34.2,4.4,30.20,WNW,292,6.0,9.0,28,0.00,,,0.00,Wunderground v.1.15,2013-03-17 21:32:00,
2013-03-17 17:37:00,34.5,4.7,30.20,NW,313,9.0,12.0,28,0.00,,,0.00,Wunderground v.1.15,2013-03-17 21:37:00,
2013-03-17 17:42:00,34.6,4.8,30.21,West,276,5.0,10.0,28,0.00,,,0.00,Wunderground v.1.15,2013-03-17 21:42:00,
2013-03-17 17:47:00,34.6,5.5,30.21,WNW,288,3.0,10.0,29,0.00,,,0.00,Wunderground v.1.15,2013-03-17 21:47:00,
2013-03-17 17:52:00,34.7,4.9,30.21,NNW,337,2.0,9.0,28,0.00,,,0.00,Wunderground v.1.15,2013-03-17 21:52:00,
2013-03-17 17:57:00,34.5,4.7,30.21,WNW,284,3.0,9.0,28,0.00,,,0.00,Wunderground v.1.15,2013-03-17 21:57:00,
2013-03-17 18:02:00,34.0,5.0,30.21,West,269,7.0,10.0,29,0.00,,,0.00,Wunderground v.1.15,2013-03-17 22:02:00,
2013-03-17 18:07:00,33.8,5.6,30.22,NW,321,5.0,10.0,30,0.00,,,0.00,Wunderground v.1.15,2013-03-17 22:07:00,
2013-03-17 18:12:00,33.8,5.6,30.22,WNW,303,0.0,5.0,30,0.00,,,0.00,Wunderground v.1.15,2013-03-17 22:12:00,
2013-03-17 18:17:00,33.6,4.7,30.22,WSW,256,1.0,9.0,29,0.00,,,0.00,Wunderground v.1.15,2013-03-17 22:17:00,
2013-03-17 18:23:00,33.3,4.4,30.22,West,267,6.0,10.0,29,0.00,,,0.00,Wunderground v.1.15,2013-03-17 22:23:00,
2013-03-17 18:28:00,33.0,4.9,30.22,West,267,3.0,10.0,30,0.00,,,0.00,Wunderground v.1.15,2013-03-17 22:28:00,
2013-03-17 18:33:00,32.9,4.8,30.23,NW,306,3.0,11.0,30,0.00,,,0.00,Wunderground v.1.15,2013-03-17 22:33:00,
2013-03-17 18:38:00,32.7,5.3,30.23,NW,323,2.0,11.0,31,0.00,,,0.00,Wunderground v.1.15,2013-03-17 22:38:00,
2013-03-17 18:43:00,32.6,5.9,30.24,WSW,254,5.0,5.0,32,0.00,,,0.00,Wunderground v.1.15,2013-03-17 22:43:00,
2013-03-17 18:48:00,32.4,5.1,30.24,NW,321,3.0,7.0,31,0.00,,,0.00,Wunderground v.1.15,2013-03-17 22:48:00,
2013-03-17 18:53:00,32.3,5.7,30.24,WNW,294,1.0,3.0,32,0.00,,,0.00,Wunderground v.1.15,2013-03-17 22:53:00,
2013-03-17 18:58:00,32.1,4.8,30.25,West,274,2.0,4.0,31,0.00,,,0.00,Wunderground v.1.15,2013-03-17 22:58:00,
2013-03-17 19:03:00,31.9,4.6,30.25,WSW,257,5.0,8.0,31,0.00,,,0.00,Wunderground v.1.15,2013-03-17 23:03:00,
2013-03-17 19:08:00,31.8,5.9,30.25,West,267,0.0,8.0,33,0.00,,,0.00,Wunderground v.1.15,2013-03-17 23:08:00,
2013-03-17 19:13:00,31.6,5.7,30.26,West,267,0.0,2.0,33,0.00,,,0.00,Wunderground v.1.15,2013-03-17 23:13:00,
2013-03-17 19:18:00,31.4,5.6,30.27,SW,230,4.0,5.0,33,0.00,,,0.00,Wunderground v.1.15,2013-03-17 23:18:00,
2013-03-17 19:23:00,31.3,5.5,30.27,NW,321,2.0,4.0,33,0.00,,,0.00,Wunderground v.1.15,2013-03-17 23:23:00,
2013-03-17 19:28:00,31.1,5.3,30.28,NW,321,0.0,4.0,33,0.00,,,0.00,Wunderground v.1.15,2013-03-17 23:28:00,
2013-03-17 19:33:00,31.0,5.9,30.28,NW,321,1.0,2.0,34,0.00,,,0.00,Wunderground v.1.15,2013-03-17 23:33:00,
2013-03-17 19:38:00,31.0,6.5,30.28,NW,321,0.0,2.0,35,0.00,,,0.00,Wunderground v.1.15,2013-03-17 23:38:00,
2013-03-17 19:43:00,30.9,6.4,30.28,NW,321,1.0,2.0,35,0.00,,,0.00,Wunderground v.1.15,2013-03-17 23:43:00,
2013-03-17 19:48:00,30.8,10.4,30.29,NW,321,0.0,2.0,42,0.00,,,0.00,Wunderground v.1.15,2013-03-17 23:48:00,
2013-03-17 19:53:00,32.1,22.0,30.29,NW,321,0.0,3.0,66,0.00,,,0.00,Wunderground v.1.15,2013-03-17 23:53:00,
2013-03-17 19:58:00,41.1,36.9,30.29,NW,321,1.0,3.0,85,0.00,,,0.00,Wunderground v.1.15,2013-03-17 23:58:00,
2013-03-17 20:03:00,44.6,40.7,30.29,NW,321,0.0,2.0,86,0.00,,,0.00,Wunderground v.1.15,2013-03-18 00:03:00,
2013-03-17 20:08:00,45.8,41.9,30.29,NW,321,1.0,1.0,86,0.00,,,0.00,Wunderground v.1.15,2013-03-18 00:08:00,
2013-03-17 20:13:00,40.5,27.7,30.29,NW,321,1.0,2.0,60,0.00,,,0.00,Wunderground v.1.15,2013-03-18 00:13:00,
2013-03-17 20:18:00,35.5,15.2,30.30,NW,321,0.0,0.0,43,0.00,,,0.00,Wunderground v.1.15,2013-03-18 00:18:00,
2013-03-17 20:23:00,33.7,14.1,30.30,NW,321,0.0,1.0,44,0.00,,,0.00,Wunderground v.1.15,2013-03-18 00:23:00,
2013-03-17 20:28:00,32.5,13.0,30.30,NW,321,0.0,0.0,44,0.00,,,0.00,Wunderground v.1.15,2013-03-18 00:28:00,
2013-03-17 20:33:00,31.9,13.4,30.31,NW,321,0.0,0.0,46,0.00,,,0.00,Wunderground v.1.15,2013-03-18 00:33:00,
2013-03-17 20:38:00,31.4,12.0,30.31,NW,321,0.0,0.0,44,0.00,,,0.00,Wunderground v.1.15,2013-03-18 00:38:00,
2013-03-17 20:43:00,30.9,9.9,30.31,NW,321,0.0,0.0,41,0.00,,,0.00,Wunderground v.1.15,2013-03-18 00:43:00,
2013-03-17 20:48:00,30.0,9.1,30.31,NW,321,0.0,0.0,41,0.00,,,0.00,Wunderground v.1.15,2013-03-18 00:48:00,
2013-03-17 20:53:00,29.2,10.0,30.32,NW,321,0.0,0.0,44,0.00,,,0.00,Wunderground v.1.15,2013-03-18 00:53:00,
2013-03-17 20:58:00,28.4,8.2,30.32,NW,321,0.0,0.0,42,0.00,,,0.00,Wunderground v.1.15,2013-03-18 00:58:00,
2013-03-17 21:03:00,27.9,8.8,30.33,NW,321,1.0,1.0,44,0.00,,,0.00,Wunderground v.1.15,2013-03-18 01:03:00,
2013-03-17 21:08:00,27.7,10.5,30.33,NW,321,0.0,0.0,48,0.00,,,0.00,Wunderground v.1.15,2013-03-18 01:08:00,
2013-03-17 21:14:00,27.4,10.7,30.33,NW,321,0.0,1.0,49,0.00,,,0.00,Wunderground v.1.15,2013-03-18 01:14:00,
2013-03-17 21:19:00,26.7,10.5,30.33,NW,321,0.0,0.0,50,0.00,,,0.00,Wunderground v.1.15,2013-03-18 01:19:00,
2013-03-17 21:24:00,26.6,10.9,30.34,NW,321,1.0,1.0,51,0.00,,,0.00,Wunderground v.1.15,2013-03-18 01:24:00,
2013-03-17 21:29:00,26.4,10.3,30.34,NW,321,1.0,1.0,50,0.00,,,0.00,Wunderground v.1.15,2013-03-18 01:29:00,
2013-03-17 21:34:00,26.3,10.6,30.35,NW,321,0.0,1.0,51,0.00,,,0.00,Wunderground v.1.15,2013-03-18 01:34:00,
2013-03-17 21:39:00,26.2,10.5,30.35,NW,321,0.0,0.0,51,0.00,,,0.00,Wunderground v.1.15,2013-03-18 01:39:00,
2013-03-17 21:45:00,25.9,10.2,30.35,NW,321,2.0,2.0,51,0.00,,,0.00,Wunderground v.1.15,2013-03-18 01:45:00,
2013-03-17 21:50:00,25.7,10.9,30.35,NW,321,0.0,1.0,53,0.00,,,0.00,Wunderground v.1.15,2013-03-18 01:50:00,
2013-03-17 21:54:00,25.7,10.5,30.36,NW,321,0.0,2.0,52,0.00,,,0.00,Wunderground v.1.15,2013-03-18 01:54:00,
2013-03-17 21:59:00,25.8,11.4,30.36,NW,321,0.0,1.0,54,0.00,,,0.00,Wunderground v.1.15,2013-03-18 01:59:00,
2013-03-17 22:04:00,26.1,9.1,30.37,NW,321,0.0,1.0,48,0.00,,,0.00,Wunderground v.1.15,2013-03-18 02:04:00,
2013-03-17 22:10:00,26.4,8.9,30.37,NW,321,0.0,0.0,47,0.00,,,0.00,Wunderground v.1.15,2013-03-18 02:10:00,
2013-03-17 22:15:00,30.3,25.2,30.37,NW,321,0.0,1.0,81,0.00,,,0.00,Wunderground v.1.15,2013-03-18 02:15:00,
2013-03-17 22:20:00,42.6,38.4,30.37,NW,321,0.0,0.0,85,0.00,,,0.00,Wunderground v.1.15,2013-03-18 02:20:00,
2013-03-17 22:25:00,39.9,36.1,30.38,NW,322,0.0,4.0,86,0.00,,,0.00,Wunderground v.1.15,2013-03-18 02:25:00,
2013-03-17 22:30:00,34.1,29.2,30.38,NW,325,1.0,3.0,82,0.00,,,0.00,Wunderground v.1.15,2013-03-18 02:30:00,
2013-03-17 22:35:00,36.0,32.2,30.39,NW,325,0.0,3.0,86,0.00,,,0.00,Wunderground v.1.15,2013-03-18 02:35:00,
2013-03-17 22:40:00,37.0,33.5,30.39,NW,325,1.0,2.0,87,0.00,,,0.00,Wunderground v.1.15,2013-03-18 02:40:00,
2013-03-17 22:45:00,35.2,31.4,30.39,NW,325,0.0,2.0,86,0.00,,,0.00,Wunderground v.1.15,2013-03-18 02:45:00,
2013-03-17 22:50:00,33.0,26.3,30.39,NW,325,0.0,1.0,76,0.00,,,0.00,Wunderground v.1.15,2013-03-18 02:50:00,
2013-03-17 22:55:00,30.1,15.9,30.39,NW,308,2.0,4.0,55,0.00,,,0.00,Wunderground v.1.15,2013-03-18 02:55:00,
2013-03-17 23:00:00,28.1,11.8,30.39,NW,324,4.0,4.0,50,0.00,,,0.00,Wunderground v.1.15,2013-03-18 03:00:00,
2013-03-17 23:05:00,27.2,11.0,30.39,NNE,30,0.0,4.0,50,0.00,,,0.00,Wunderground v.1.15,2013-03-18 03:05:00,
2013-03-17 23:10:00,26.8,10.6,30.40,NNE,30,2.0,3.0,50,0.00,,,0.00,Wunderground v.1.15,2013-03-18 03:10:00,
2013-03-17 23:15:00,26.5,10.3,30.40,NNE,30,0.0,3.0,50,0.00,,,0.00,Wunderground v.1.15,2013-03-18 03:15:00,
2013-03-17 23:20:00,26.3,10.6,30.40,NNE,30,1.0,1.0,51,0.00,,,0.00,Wunderground v.1.15,2013-03-18 03:20:00,
2013-03-17 23:25:00,26.1,10.0,30.40,NNE,30,1.0,1.0,50,0.00,,,0.00,Wunderground v.1.15,2013-03-18 03:25:00,
2013-03-17 23:30:00,25.8,10.1,30.40,NNE,30,0.0,1.0,51,0.00,,,0.00,Wunderground v.1.15,2013-03-18 03:30:00,
2013-03-17 23:35:00,25.7,10.5,30.41,NNE,30,0.0,1.0,52,0.00,,,0.00,Wunderground v.1.15,2013-03-18 03:35:00,
2013-03-17 23:40:00,25.4,9.3,30.41,NW,308,1.0,6.0,50,0.00,,,0.00,Wunderground v.1.15,2013-03-18 03:40:00,
2013-03-17 23:41:00,24.9,9.7,30.41,NW,305,0.0,1.0,52,0.00,,,0.00,Wunderground v.1.15,2013-03-18 03:41:00,
2013-03-17 23:42:00,24.9,9.7,30.41,NW,305,1.0,1.0,52,0.00,,,0.00,Wunderground v.1.15,2013-03-18 03:42:00,
2013-03-17 23:43:00,24.9,9.7,30.41,NW,305,0.0,1.0,52,0.00,,,0.00,Wunderground v.1.15,2013-03-18 03:43:00,
2013-03-17 23:44:00,24.9,9.3,30.41,NW,305,0.0,1.0,51,0.00,,,0.00,Wunderground v.1.15,2013-03-18 03:44:00,
2013-03-17 23:45:00,25.2,9.6,30.41,NW,310,3.0,6.0,51,0.00,,,0.00,Wunderground v.1.15,2013-03-18 03:45:00,
2013-03-17 23:46:00,24.9,8.9,30.41,NW,305,0.0,1.0,50,0.00,,,0.00,Wunderground v.1.15,2013-03-18 03:46:00,
2013-03-17 23:47:00,24.9,9.3,30.41,NW,305,0.0,1.0,51,0.00,,,0.00,Wunderground v.1.15,2013-03-18 03:47:00,
2013-03-17 23:48:00,25.0,9.4,30.41,NW,305,1.0,1.0,51,0.00,,,0.00,Wunderground v.1.15,2013-03-18 03:48:00,
2013-03-17 23:49:00,24.9,9.3,30.41,NW,305,0.0,1.0,51,0.00,,,0.00,Wunderground v.1.15,2013-03-18 03:49:00,
2013-03-17 23:50:00,25.1,9.0,30.41,NW,305,2.0,4.0,50,0.00,,,0.00,Wunderground v.1.15,2013-03-18 03:50:00,
2013-03-17 23:55:00,24.9,9.3,30.41,NW,305,0.0,4.0,51,0.00,,,0.00,Wunderground v.1.15,2013-03-18 03:55:00,